Location: Huesca
(42.1318°N, 0.4078°W)
Time: 05:07:21
(UTC+02:00)

O/OREOS (USA 219) - Visible Passes

Search period start: 14 July 2025 00:00
Search period end: 24 July 2025 00:00
Orbit: 582 x 603 km, 72.0° (Epoch: 13 July)

Date Brightness Start Highest point End Pass type
(mag) Time Alt. Az. Time Alt. Az. Time Alt. Az.
14 Jul ? 00:13:56 10° NNE 00:16:02 13° NE 00:17:41 11° ENE visible
14 Jul ? 01:50:43 10° NNW 01:54:16 55° NW 01:54:16 55° NW visible
15 Jul ? 00:22:05 10° N 00:25:21 20° NE 00:26:22 19° ENE visible
15 Jul ? 01:59:57 10° NW 02:02:57 34° WNW 02:02:57 34° WNW visible
16 Jul ? 00:30:40 10° N 00:34:35 31° ENE 00:35:05 30° ENE visible
16 Jul ? 02:09:24 10° NW 02:11:40 21° WNW 02:11:40 21° WNW visible
17 Jul ? 00:39:28 10° NNW 00:43:44 51° ENE 00:43:50 51° ENE visible
17 Jul ? 02:19:21 10° WNW 02:20:25 13° WNW 02:20:25 13° WNW visible
17 Jul ? 23:12:41 10° NE 23:13:34 10° NE 23:14:27 10° ENE visible
18 Jul ? 00:48:24 10° NNW 00:52:36 81° N 00:52:36 81° N visible
18 Jul ? 23:20:08 10° NNE 23:22:55 16° NE 23:24:49 13° E visible
19 Jul ? 00:57:31 10° NNW 01:01:24 52° W 01:01:24 52° W visible
19 Jul ? 23:28:33 10° N 23:32:11 25° ENE 23:33:39 21° E visible
20 Jul ? 01:06:50 10° NW 01:10:14 31° W 01:10:14 31° W visible
20 Jul ? 23:37:13 10° N 23:41:21 39° ENE 23:42:30 33° E visible
21 Jul ? 01:16:28 10° NW 01:19:05 19° W 01:19:05 19° W visible
21 Jul ? 23:46:05 10° NNW 23:50:27 67° ENE 23:51:23 50° SE visible
22 Jul ? 01:27:02 10° W 01:27:59 11° W 01:27:59 11° W visible
22 Jul ? 22:18:19 10° NNE 22:20:25 13° NE 22:22:31 10° E visible
22 Jul ? 23:55:06 10° NNW 23:59:28 72° WSW 00:00:18 55° S visible
23 Jul ? 22:26:26 10° N 22:29:42 20° NE 22:32:40 11° E visible
